• In Netherlands
  • List of Countries
  • For 7 days
  • Water Temperature
  • Satellite Maps
  • Weather Map
  • Weather Widgets
  • user-avatar
    Login

    Hourly Weather Mahilyow

    Today, 28 February, Tuesday

    Time Temperature Precipitation Wind Pressure Humidity
    00:00 +1°C° 0 mm 2 mps 746 mmHg 99%
    01:00 +1°C° 0 mm 2 mps 746 mmHg 99%
    02:00 +1°C° 0 mm 2 mps 746 mmHg 99%
    03:00 +1°C° 0 mm 2 mps 746 mmHg 99%
    04:00 +1°C° 0 mm 2 mps 745 mmHg 99%
    05:00 0°C° 0 mm 3 mps 745 mmHg 99%
    06:00 +1°C° 0 mm 3 mps 745 mmHg 99%
    07:00 +1°C° 0 mm 3 mps 745 mmHg 99%
    08:00 0°C° 0 mm 4 mps 745 mmHg 98%
    09:00 +1°C° 0 mm 4 mps 745 mmHg 95%
    10:00 +3°C° 0 mm 4 mps 744 mmHg 91%
    11:00 +3°C° 0 mm 5 mps 744 mmHg 87%
    12:00 +3°C° 0 mm 5 mps 744 mmHg 85%
    13:00 +5°C° 0 mm 5 mps 743 mmHg 83%
    14:00 +6°C° 0 mm 5 mps 743 mmHg 81%
    15:00 +5°C° 0 mm 5 mps 742 mmHg 84%
    16:00 +3°C° 0 mm 5 mps 742 mmHg 87%
    17:00 +3°C° 0 mm 5 mps 742 mmHg 90%
    18:00 +2°C° 0 mm 5 mps 742 mmHg 92%
    19:00 +2°C° 0 mm 5 mps 742 mmHg 94%
    20:00 +2°C° 0 mm 5 mps 742 mmHg 96%
    21:00 +2°C° 0 mm 5 mps 742 mmHg 96%
    22:00 +3°C° 0 mm 5 mps 741 mmHg 96%
    23:00 +3°C° 0 mm 5 mps 741 mmHg 96%

    Tomorrow, 1 March, Wednesday

    Time Temperature Precipitation Wind Pressure Humidity
    00:00 +3°C° 0 mm 5 mps 741 mmHg 97%
    01:00 +3°C° 0 mm 5 mps 741 mmHg 97%
    02:00 +3°C° 0 mm 5 mps 741 mmHg 97%
    03:00 +3°C° 0.1 mm 5 mps 741 mmHg 97%
    04:00 +3°C° 0.1 mm 5 mps 740 mmHg 97%
    05:00 +4°C° 0.1 mm 4 mps 740 mmHg 97%
    06:00 +3°C° 0 mm 5 mps 740 mmHg 97%
    07:00 +3°C° 0 mm 5 mps 741 mmHg 96%
    08:00 +3°C° 0 mm 5 mps 741 mmHg 96%
    09:00 +3°C° 0 mm 5 mps 740 mmHg 94%
    10:00 +5°C° 0 mm 5 mps 740 mmHg 92%
    11:00 +5°C° 0 mm 5 mps 740 mmHg 90%
    12:00 +5°C° 0 mm 5 mps 740 mmHg 89%
    13:00 +6°C° 0 mm 5 mps 740 mmHg 88%
    14:00 +6°C° 0 mm 5 mps 739 mmHg 87%
    15:00 +6°C° 0 mm 5 mps 739 mmHg 89%
    16:00 +5°C° 0 mm 5 mps 739 mmHg 91%
    17:00 +5°C° 0 mm 5 mps 739 mmHg 92%
    18:00 +5°C° 0 mm 5 mps 739 mmHg 93%
    19:00 +5°C° 0 mm 4 mps 739 mmHg 94%
    20:00 +5°C° 0 mm 4 mps 739 mmHg 95%
    21:00 +5°C° 0.1 mm 4 mps 739 mmHg 95%
    22:00 +5°C° 0.1 mm 4 mps 739 mmHg 96%
    23:00 +5°C° 0.1 mm 4 mps 739 mmHg 96%

    Day after tomorrow, 2 March, Thursday

    Time Temperature Precipitation Wind Pressure Humidity
    00:00 +5°C° 0.2 mm 4 mps 739 mmHg 96%
    01:00 +5°C° 0.2 mm 4 mps 739 mmHg 96%
    02:00 +5°C° 0.2 mm 3 mps 739 mmHg 97%
    03:00 +4°C° 0.6 mm 3 mps 739 mmHg 97%
    04:00 +4°C° 0.6 mm 3 mps 739 mmHg 97%
    05:00 +4°C° 0.6 mm 3 mps 739 mmHg 97%
    06:00 +4°C° 0.7 mm 2 mps 739 mmHg 97%
    07:00 +4°C° 0.7 mm 2 mps 740 mmHg 96%
    08:00 +4°C° 0.7 mm 2 mps 740 mmHg 96%
    09:00 +4°C° 0.3 mm 2 mps 740 mmHg 94%
    10:00 +5°C° 0.3 mm 2 mps 740 mmHg 92%
    11:00 +5°C° 0.3 mm 2 mps 741 mmHg 89%
    12:00 +4°C° 0 mm 3 mps 741 mmHg 85%
    13:00 +5°C° 0 mm 3 mps 741 mmHg 81%
    14:00 +7°C° 0 mm 3 mps 741 mmHg 76%
    15:00 +5°C° 0 mm 3 mps 741 mmHg 80%
    16:00 +5°C° 0 mm 2 mps 741 mmHg 83%
    17:00 +5°C° 0 mm 2 mps 741 mmHg 86%
    18:00 +4°C° 0 mm 2 mps 741 mmHg 89%
    19:00 +2°C° 0 mm 3 mps 742 mmHg 92%
    20:00 +2°C° 0 mm 3 mps 742 mmHg 95%
    21:00 +2°C° 0 mm 3 mps 741 mmHg 95%
    22:00 +1°C° 0 mm 4 mps 741 mmHg 95%
    23:00 +1°C° 0 mm 4 mps 740 mmHg 94%

    3 March, Friday

    Time Temperature Precipitation Wind Pressure Humidity
    00:00 +1°C° 0.2 mm 4 mps 740 mmHg 94%
    01:00 +1°C° 0.2 mm 5 mps 740 mmHg 94%
    02:00 +2°C° 0.2 mm 5 mps 740 mmHg 93%
    03:00 +1°C° 0.1 mm 5 mps 739 mmHg 92%
    04:00 +1°C° 0.1 mm 5 mps 739 mmHg 91%
    05:00 0°C° 0.1 mm 5 mps 739 mmHg 89%
    06:00 0°C° 0.2 mm 5 mps 739 mmHg 88%
    07:00 +1°C° 0.2 mm 6 mps 740 mmHg 88%
    08:00 +1°C° 0.2 mm 6 mps 740 mmHg 87%
    09:00 +1°C° 0.1 mm 6 mps 740 mmHg 86%
    10:00 +2°C° 0.1 mm 6 mps 741 mmHg 84%
    11:00 +2°C° 0.1 mm 6 mps 742 mmHg 83%
    12:00 +3°C° 0 mm 6 mps 742 mmHg 81%
    13:00 +3°C° 0 mm 6 mps 743 mmHg 79%
    14:00 +3°C° 0 mm 5 mps 744 mmHg 78%
    15:00 +3°C° 0.1 mm 5 mps 744 mmHg 81%
    16:00 +3°C° 0.1 mm 5 mps 744 mmHg 83%
    17:00 +3°C° 0.1 mm 4 mps 745 mmHg 86%
    18:00 +3°C° 0.1 mm 4 mps 745 mmHg 88%
    19:00 +3°C° 0.1 mm 4 mps 745 mmHg 89%
    20:00 +1°C° 0.1 mm 4 mps 746 mmHg 91%
    21:00 +1°C° 0 mm 4 mps 746 mmHg 93%
    22:00 +1°C° 0 mm 4 mps 746 mmHg 95%
    23:00 +1°C° 0 mm 3 mps 746 mmHg 97%

    4 March, Saturday

    Time Temperature Precipitation Wind Pressure Humidity
    00:00 +1°C° 0 mm 3 mps 747 mmHg 97%
    01:00 +1°C° 0 mm 3 mps 747 mmHg 97%
    02:00 0°C° 0 mm 3 mps 747 mmHg 97%
    03:00 0°C° 0.1 mm 3 mps 747 mmHg 96%
    04:00 +1°C° 0.1 mm 3 mps 747 mmHg 95%
    05:00 +1°C° 0.1 mm 3 mps 747 mmHg 95%
    06:00 +1°C° 0.4 mm 3 mps 746 mmHg 94%
    07:00 +1°C° 0.4 mm 3 mps 746 mmHg 93%
    08:00 0°C° 0.4 mm 4 mps 746 mmHg 92%
    09:00 +1°C° 0 mm 4 mps 746 mmHg 89%
    10:00 +3°C° 0 mm 4 mps 746 mmHg 87%
    11:00 +3°C° 0 mm 4 mps 746 mmHg 84%
    12:00 +4°C° 0 mm 4 mps 746 mmHg 82%
    13:00 +5°C° 0 mm 4 mps 745 mmHg 80%
    14:00 +6°C° 0 mm 4 mps 745 mmHg 78%
    15:00 +6°C° 0 mm 4 mps 745 mmHg 81%
    16:00 +5°C° 0 mm 4 mps 745 mmHg 84%
    17:00 +5°C° 0 mm 3 mps 745 mmHg 87%
    18:00 +4°C° 0 mm 3 mps 745 mmHg 90%
    19:00 +4°C° 0 mm 3 mps 745 mmHg 92%
    20:00 +4°C° 0 mm 3 mps 745 mmHg 94%
    21:00 +4°C° 0 mm 4 mps 745 mmHg 95%
    22:00 +4°C° 0 mm 4 mps 745 mmHg 95%
    23:00 +4°C° 0 mm 4 mps 745 mmHg 95%

    5 March, Sunday

    Time Temperature Precipitation Wind Pressure Humidity
    00:00 +3°C° 0 mm 4 mps 746 mmHg 95%
    01:00 +3°C° 0 mm 4 mps 746 mmHg 96%
    02:00 +3°C° 0 mm 4 mps 746 mmHg 96%
    03:00 +3°C° 0 mm 4 mps 746 mmHg 97%
    04:00 +3°C° 0 mm 3 mps 746 mmHg 97%
    05:00 +2°C° 0 mm 3 mps 746 mmHg 98%
    06:00 +2°C° 0 mm 3 mps 747 mmHg 97%
    07:00 +3°C° 0 mm 3 mps 747 mmHg 97%
    08:00 +3°C° 0 mm 3 mps 748 mmHg 97%
    09:00 +4°C° 0 mm 3 mps 748 mmHg 93%
    10:00 +5°C° 0 mm 3 mps 748 mmHg 89%
    11:00 +7°C° 0 mm 3 mps 749 mmHg 86%
    12:00 +8°C° 0 mm 3 mps 749 mmHg 84%
    13:00 +9°C° 0 mm 3 mps 749 mmHg 82%
    14:00 +9°C° 0 mm 2 mps 749 mmHg 80%
    15:00 +9°C° 0 mm 2 mps 749 mmHg 84%
    16:00 +8°C° 0 mm 2 mps 749 mmHg 88%
    17:00 +8°C° 0 mm 2 mps 749 mmHg 92%
    18:00 +7°C° 0 mm 2 mps 749 mmHg 94%
    19:00 +6°C° 0 mm 2 mps 750 mmHg 96%
    20:00 +5°C° 0 mm 2 mps 750 mmHg 97%
    21:00 +5°C° 0 mm 2 mps 749 mmHg 97%
    22:00 +5°C° 0 mm 2 mps 749 mmHg 98%
    23:00 +5°C° 0 mm 2 mps 749 mmHg 98%
    Show more